Location: Unspecified
(0.0000°N, 0.0000°E)
Time: 10:28:00
(UTC+02:00)

Milstar 3 - Visible Passes

Search period start: 27 May 2016 00:00
Search period end: 06 June 2016 00:00
Orbit: 1095 x 5150 km, 28.2° (Epoch: 08 May)

Date Brightness Start Highest point End Pass type
(mag) Time Alt. Az. Time Alt. Az. Time Alt. Az.
27 May 6.6 00:03:32 10° WNW 00:31:41 34° N 00:54:51 10° ENE visible
27 May 5.7 03:05:49 10° NW 03:32:12 44° NNE 03:46:37 10° E visible
27 May 4.1 06:03:11 10° WNW 06:22:16 88° SSW 06:31:38 10° ESE visible
27 May 6.3 20:01:35 10° W 20:20:26 55° NNW 20:51:57 10° NE visible
27 May 6.7 22:55:38 10° WNW 23:22:10 36° N 23:48:58 10° NE visible
28 May 6.1 01:57:33 10° NW 02:25:50 39° NNE 02:43:13 10° ENE visible
28 May 4.6 04:56:19 10° NW 05:19:14 72° NNE 05:30:17 10° ESE visible
28 May 6.7 21:49:11 10° WNW 22:12:53 39° NNW 22:42:20 10° NE visible
29 May 6.4 00:49:06 10° NW 01:18:02 36° N 01:38:50 10° ENE visible
29 May 5.2 03:49:00 10° NW 04:15:12 58° NNE 04:28:24 10° E visible
29 May 4.1 06:46:22 10° WNW 07:02:54 57° SW 07:11:34 10° SE visible
29 May 6.6 20:44:12 10° W 21:04:37 44° NNW 21:35:10 10° NE visible
29 May 6.7 23:41:01 10° WNW 00:08:59 35° N 00:33:20 10° ENE visible
30 May 5.7 02:41:20 10° NW 03:09:57 49° NNE 03:25:48 10° E visible
30 May 4.3 05:39:18 10° WNW 06:00:28 81° SSW 06:10:41 10° SE visible
30 May 6.4 19:40:28 10° W 19:57:40 51° NNW 20:27:40 10° NE visible
30 May 6.8 22:33:50 10° WNW 22:59:19 35° N 23:26:44 10° ENE visible
31 May 6.1 01:33:31 10° NW 02:03:21 42° NNE 02:22:18 10° E visible
31 May 4.7 04:31:56 10° NW 04:57:13 79° NNE 05:09:21 10° ESE visible
31 May 4.4 07:30:34 10° W 07:43:21 34° SW 07:51:01 10° SSE visible
31 May 6.8 21:27:52 10° WNW 21:50:03 37° N 22:19:16 10° NE visible
01 Jun 6.4 00:25:49 10° NW 00:55:21 38° NNE 01:17:40 10° ENE visible
01 Jun 5.2 03:24:25 10° NW 03:52:56 64° NNE 04:07:27 10° ESE visible
01 Jun 4.3 06:23:00 10° WNW 06:41:09 53° SW 06:50:32 10° SE visible
01 Jun 6.6 20:23:09 10° W 20:41:56 40° NNW 21:11:18 10° NE visible
01 Jun 6.7 23:18:36 10° NW 23:46:11 36° N 00:11:41 10° ENE visible
02 Jun 5.7 02:16:55 10° NW 02:47:25 54° NNE 03:04:49 10° E visible
02 Jun 4.4 05:15:14 10° WNW 05:38:27 74° SSW 05:49:40 10° SE visible
02 Jun 6.8 22:12:09 10° WNW 22:36:33 34° N 23:04:24 10° ENE visible
03 Jun 6.1 01:09:37 10° NW 01:40:35 46° NNE 02:01:12 10° E visible
03 Jun 4.8 04:07:28 10° WNW 04:34:56 86° NNE 04:48:19 10° ESE visible
03 Jun 4.6 07:07:50 10° W 07:21:44 32° SW 07:29:57 10° SSE visible
03 Jun 6.8 21:06:41 10° WNW 21:27:25 35° N 21:56:04 10° NE visible
04 Jun 6.4 00:02:41 10° NW 00:32:27 40° NNE 00:51:45 19° ENE visible
04 Jun 5.2 02:59:52 10° NW 03:32:31 68° ENE 03:46:22 10° ESE visible
04 Jun 4.5 06:06:33 22° W 06:19:14 49° SW 06:29:28 10° SE visible
04 Jun 6.7 20:02:16 10° WNW 20:19:30 37° N 20:47:20 10° NE visible
04 Jun 6.6 22:56:18 10° NW 23:23:18 36° N 23:49:54 10° ENE visible
05 Jun 5.7 01:52:38 10° NW 02:37:28 30° E 02:43:38 10° E visible
05 Jun 4.6 04:51:04 10° WNW 05:16:14 69° SW 05:28:33 10° SE visible
05 Jun 6.8 21:50:35 10° NW 22:13:50 34° N 22:41:56 10° ENE visible
